Location: Newark
(44.3681°N, 100.3364°W)
Time: 00:31:38
(UTC+00:00)

Vanguard 1 - Pass Details

Date: 27 February 2020
Orbit: 649 x 3834 km, 34.2° (Epoch: 01 April)

Event Time Altitude Azimuth Distance (km) Brightness Sun altitude
Rises 19:00:56 0° 279° (W) 7,332 14.5 37.3°
Reaches altitude 10° 19:07:07 10° 272° (W) 5,851 14.1 37.2°
Maximum altitude 19:20:23 32° 218° (SW) 3,095 14.1 37.0°
Drops below altitude 10° 19:28:33 10° 159° (SSE) 3,548 13.8 36.7°
Sets 19:31:17 0° 148° (SSE) 4,186 13.9 36.6°
